Year,Month,Day,Hour,Minute,Value (Times are PST for temperature in C)
2015,06,15,00,00,16.10
2015,06,15,00,01,16.10
2015,06,15,00,02,16.00
2015,06,15,00,03,15.90
2015,06,15,00,04,15.90
2015,06,15,00,05,15.90
2015,06,15,00,06,15.90
2015,06,15,00,07,15.90
2015,06,15,00,08,15.80
2015,06,15,00,09,15.70
2015,06,15,00,10,15.70
2015,06,15,00,11,15.80
2015,06,15,00,12,16.00
2015,06,15,00,13,16.20
2015,06,15,00,14,16.30
2015,06,15,00,15,16.40
2015,06,15,00,16,16.40
2015,06,15,00,17,16.40
2015,06,15,00,18,16.30
2015,06,15,00,19,16.10
2015,06,15,00,20,15.90
2015,06,15,00,21,15.80
2015,06,15,00,22,15.70
2015,06,15,00,23,15.80
2015,06,15,00,24,15.80
2015,06,15,00,25,15.70
2015,06,15,00,26,15.40
2015,06,15,00,27,15.10
2015,06,15,00,28,14.90
2015,06,15,00,29,14.70
2015,06,15,00,30,14.50
2015,06,15,00,31,14.30
2015,06,15,00,32,14.30
2015,06,15,00,33,14.30
2015,06,15,00,34,14.30
2015,06,15,00,35,14.30
2015,06,15,00,36,14.30
2015,06,15,00,37,14.20
2015,06,15,00,38,14.20
2015,06,15,00,39,14.20
2015,06,15,00,40,14.20
2015,06,15,00,41,14.20
2015,06,15,00,42,14.20
2015,06,15,00,43,14.20
2015,06,15,00,44,14.10
2015,06,15,00,45,14.10
2015,06,15,00,46,14.10
2015,06,15,00,47,14.10
2015,06,15,00,48,14.10
2015,06,15,00,49,14.20
2015,06,15,00,50,14.30
2015,06,15,00,51,14.40
2015,06,15,00,52,14.50
2015,06,15,00,53,14.60
2015,06,15,00,54,14.70
2015,06,15,00,55,14.80
2015,06,15,00,56,14.80
2015,06,15,00,57,14.90
2015,06,15,00,58,14.90
2015,06,15,00,59,14.90
2015,06,15,01,00,14.90
2015,06,15,01,01,14.90
2015,06,15,01,02,14.90
2015,06,15,01,03,14.90
2015,06,15,01,04,14.90
2015,06,15,01,05,14.90
2015,06,15,01,06,14.90
2015,06,15,01,07,14.90
2015,06,15,01,08,15.00
2015,06,15,01,09,15.00
2015,06,15,01,10,15.00
2015,06,15,01,11,15.00
2015,06,15,01,12,15.10
2015,06,15,01,13,15.10
2015,06,15,01,14,15.00
2015,06,15,01,15,15.00
2015,06,15,01,16,15.00
2015,06,15,01,17,14.90
2015,06,15,01,18,14.90
2015,06,15,01,19,14.90
2015,06,15,01,20,14.80
2015,06,15,01,21,14.80
2015,06,15,01,22,14.80
2015,06,15,01,23,14.80
2015,06,15,01,24,14.70
2015,06,15,01,25,14.70
2015,06,15,01,26,14.70
2015,06,15,01,27,14.70
2015,06,15,01,28,14.70
2015,06,15,01,29,14.80
2015,06,15,01,30,14.80
2015,06,15,01,31,14.80
2015,06,15,01,32,14.90
2015,06,15,01,33,14.90
2015,06,15,01,34,15.00
2015,06,15,01,35,15.00
2015,06,15,01,36,15.10
2015,06,15,01,37,15.10
2015,06,15,01,38,15.20
2015,06,15,01,39,15.30
2015,06,15,01,40,15.40
2015,06,15,01,41,15.30
2015,06,15,01,42,15.10
2015,06,15,01,43,15.00
2015,06,15,01,44,15.00
2015,06,15,01,45,14.90
2015,06,15,01,46,14.90
2015,06,15,01,47,14.80
2015,06,15,01,48,14.80
2015,06,15,01,49,14.70
2015,06,15,01,50,14.70
2015,06,15,01,51,14.60
2015,06,15,01,52,14.60
2015,06,15,01,53,14.60
2015,06,15,01,54,14.70
2015,06,15,01,55,14.60
2015,06,15,01,56,14.50
2015,06,15,01,57,14.40
2015,06,15,01,58,14.40
2015,06,15,01,59,14.30
2015,06,15,02,00,14.30
2015,06,15,02,01,14.20
2015,06,15,02,02,14.20
2015,06,15,02,03,14.20
2015,06,15,02,04,14.20
2015,06,15,02,05,14.20
2015,06,15,02,06,14.20
2015,06,15,02,07,14.20
2015,06,15,02,08,14.30
2015,06,15,02,09,14.40
2015,06,15,02,10,14.50
2015,06,15,02,11,14.50
2015,06,15,02,12,14.40
2015,06,15,02,13,14.50
2015,06,15,02,14,14.60
2015,06,15,02,15,14.70
2015,06,15,02,16,14.70
2015,06,15,02,17,14.70
2015,06,15,02,18,14.70
2015,06,15,02,19,14.50
2015,06,15,02,20,14.40
2015,06,15,02,21,14.30
2015,06,15,02,22,14.20
2015,06,15,02,23,14.00
2015,06,15,02,24,13.90
2015,06,15,02,25,13.70
2015,06,15,02,26,13.70
2015,06,15,02,27,13.70
2015,06,15,02,28,13.70
2015,06,15,02,29,13.60
2015,06,15,02,30,13.50
2015,06,15,02,31,13.50
2015,06,15,02,32,13.40
2015,06,15,02,33,13.30
2015,06,15,02,34,13.30
2015,06,15,02,35,13.30
2015,06,15,02,36,13.20
2015,06,15,02,37,13.20
2015,06,15,02,38,13.10
2015,06,15,02,39,13.10
2015,06,15,02,40,13.00
2015,06,15,02,41,13.00
2015,06,15,02,42,12.90
2015,06,15,02,43,12.90
2015,06,15,02,44,12.90
2015,06,15,02,45,12.80
2015,06,15,02,46,12.90
2015,06,15,02,47,12.90
2015,06,15,02,48,12.90
2015,06,15,02,49,12.90
2015,06,15,02,50,12.90
2015,06,15,02,51,12.90
2015,06,15,02,52,12.90
2015,06,15,02,53,12.90
2015,06,15,02,54,12.90
2015,06,15,02,55,12.90
2015,06,15,02,56,12.90
2015,06,15,02,57,12.90
2015,06,15,02,58,12.80
2015,06,15,02,59,12.80
2015,06,15,03,00,12.80
2015,06,15,03,01,12.70
2015,06,15,03,02,12.70
2015,06,15,03,03,12.70
2015,06,15,03,04,12.70
2015,06,15,03,05,12.80
2015,06,15,03,06,13.00
2015,06,15,03,07,13.00
2015,06,15,03,08,13.00
2015,06,15,03,09,13.00
2015,06,15,03,10,13.00
2015,06,15,03,11,12.90
2015,06,15,03,12,12.90
2015,06,15,03,13,12.90
2015,06,15,03,14,12.90
2015,06,15,03,15,12.90
2015,06,15,03,16,12.80
2015,06,15,03,17,12.80
2015,06,15,03,18,12.80
2015,06,15,03,19,12.70
2015,06,15,03,20,12.70
2015,06,15,03,21,12.70
2015,06,15,03,22,12.70
2015,06,15,03,23,12.70
2015,06,15,03,24,12.70
2015,06,15,03,25,12.80
2015,06,15,03,26,12.80
2015,06,15,03,27,12.80
2015,06,15,03,28,12.70
2015,06,15,03,29,12.70
2015,06,15,03,30,12.70
2015,06,15,03,31,12.70
2015,06,15,03,32,12.70
2015,06,15,03,33,12.70
2015,06,15,03,34,12.60
2015,06,15,03,35,12.60
2015,06,15,03,36,12.60
2015,06,15,03,37,12.60
2015,06,15,03,38,12.60
2015,06,15,03,39,12.60
2015,06,15,03,40,12.60
2015,06,15,03,41,12.60
2015,06,15,03,42,12.60
2015,06,15,03,43,12.60
2015,06,15,03,44,12.60
2015,06,15,03,45,12.60
2015,06,15,03,46,12.70
2015,06,15,03,47,12.70
2015,06,15,03,48,12.70
2015,06,15,03,49,12.70
2015,06,15,03,50,12.70
2015,06,15,03,51,12.80
2015,06,15,03,52,12.80
2015,06,15,03,53,12.80
2015,06,15,03,54,12.80
2015,06,15,03,55,12.80
2015,06,15,03,56,12.80
2015,06,15,03,57,12.80
2015,06,15,03,58,12.80
2015,06,15,03,59,12.80
2015,06,15,04,00,12.80
2015,06,15,04,01,12.80
2015,06,15,04,02,12.80
2015,06,15,04,03,12.80
2015,06,15,04,04,12.90
2015,06,15,04,05,12.90
2015,06,15,04,06,13.00
2015,06,15,04,07,13.00
2015,06,15,04,08,13.10
2015,06,15,04,09,13.10
2015,06,15,04,10,13.10
2015,06,15,04,11,13.10
2015,06,15,04,12,13.00
2015,06,15,04,13,12.90
2015,06,15,04,14,12.80
2015,06,15,04,15,12.80
2015,06,15,04,16,12.80
2015,06,15,04,17,12.70
2015,06,15,04,18,12.70
2015,06,15,04,19,12.70
2015,06,15,04,20,12.60
2015,06,15,04,21,12.60
2015,06,15,04,22,12.60
2015,06,15,04,23,12.60
2015,06,15,04,24,12.50
2015,06,15,04,25,12.50
2015,06,15,04,26,12.50
2015,06,15,04,27,12.50
2015,06,15,04,28,12.60
2015,06,15,04,29,12.60
2015,06,15,04,30,12.60
2015,06,15,04,31,12.60
2015,06,15,04,32,12.70
2015,06,15,04,33,12.60
2015,06,15,04,34,12.60
2015,06,15,04,35,12.60
2015,06,15,04,36,12.60
2015,06,15,04,37,12.60
2015,06,15,04,38,12.60
2015,06,15,04,39,12.60
2015,06,15,04,40,12.70
2015,06,15,04,41,12.70
2015,06,15,04,42,12.70
2015,06,15,04,43,12.80
2015,06,15,04,44,12.80
2015,06,15,04,45,12.90
2015,06,15,04,46,13.10
2015,06,15,04,47,13.30
2015,06,15,04,48,13.40
2015,06,15,04,49,13.60
2015,06,15,04,50,13.60
2015,06,15,04,51,13.70
2015,06,15,04,52,13.70
2015,06,15,04,53,13.70
2015,06,15,04,54,13.70
2015,06,15,04,55,13.70
2015,06,15,04,56,13.70
2015,06,15,04,57,13.70
2015,06,15,04,58,13.60
2015,06,15,04,59,13.50
2015,06,15,05,00,13.40
2015,06,15,05,01,13.40
2015,06,15,05,02,13.30
2015,06,15,05,03,13.20
2015,06,15,05,04,13.10
2015,06,15,05,05,13.00
2015,06,15,05,06,12.90
2015,06,15,05,07,12.80
2015,06,15,05,08,12.70
2015,06,15,05,09,12.70
2015,06,15,05,10,12.60
2015,06,15,05,11,12.60
2015,06,15,05,12,12.60
2015,06,15,05,13,12.60
2015,06,15,05,14,12.60
2015,06,15,05,15,12.50
2015,06,15,05,16,12.50
2015,06,15,05,17,12.50
2015,06,15,05,18,12.50
2015,06,15,05,19,12.50
2015,06,15,05,20,12.50
2015,06,15,05,21,12.40
2015,06,15,05,22,12.40
2015,06,15,05,23,12.40
2015,06,15,05,24,12.40
2015,06,15,05,25,12.40
2015,06,15,05,26,12.30
2015,06,15,05,27,12.30
2015,06,15,05,28,12.30
2015,06,15,05,29,12.30
2015,06,15,05,30,12.30
2015,06,15,05,31,12.30
2015,06,15,05,32,12.30
2015,06,15,05,33,12.30
2015,06,15,05,34,12.30
2015,06,15,05,35,12.30
2015,06,15,05,36,12.30
2015,06,15,05,37,12.30
2015,06,15,05,38,12.30
2015,06,15,05,39,12.30
2015,06,15,05,40,12.30
2015,06,15,05,41,12.30
2015,06,15,05,42,12.30
2015,06,15,05,43,12.30
2015,06,15,05,44,12.30
2015,06,15,05,45,12.30
2015,06,15,05,46,12.30
2015,06,15,05,47,12.30
2015,06,15,05,48,12.30
2015,06,15,05,49,12.30
2015,06,15,05,50,12.30
2015,06,15,05,51,12.30
2015,06,15,05,52,12.30
2015,06,15,05,53,12.30
2015,06,15,05,54,12.30
2015,06,15,05,55,12.30
2015,06,15,05,56,12.30
2015,06,15,05,57,12.30
2015,06,15,05,58,12.30
2015,06,15,05,59,12.30
2015,06,15,06,00,12.30
2015,06,15,06,01,12.30
2015,06,15,06,02,12.30
2015,06,15,06,03,12.40
2015,06,15,06,04,12.40
2015,06,15,06,05,12.40
2015,06,15,06,06,12.50
2015,06,15,06,07,12.50
2015,06,15,06,08,12.60
2015,06,15,06,09,12.60
2015,06,15,06,10,12.70
2015,06,15,06,11,12.70
2015,06,15,06,12,12.70
2015,06,15,06,13,12.70
2015,06,15,06,14,12.70
2015,06,15,06,15,12.70
2015,06,15,06,16,12.60
2015,06,15,06,17,12.60
2015,06,15,06,18,12.60
2015,06,15,06,19,12.50
2015,06,15,06,20,12.50
2015,06,15,06,21,12.50
2015,06,15,06,22,12.50
2015,06,15,06,23,12.50
2015,06,15,06,24,12.50
2015,06,15,06,25,12.50
2015,06,15,06,26,12.50
2015,06,15,06,27,12.50
2015,06,15,06,28,12.50
2015,06,15,06,29,12.60
2015,06,15,06,30,12.60
2015,06,15,06,31,12.60
2015,06,15,06,32,12.70
2015,06,15,06,33,12.70
2015,06,15,06,34,12.70
2015,06,15,06,35,12.70
2015,06,15,06,36,12.70
2015,06,15,06,37,12.70
2015,06,15,06,38,12.70
2015,06,15,06,39,12.70
2015,06,15,06,40,12.60
2015,06,15,06,41,12.60
2015,06,15,06,42,12.50
2015,06,15,06,43,12.50
2015,06,15,06,44,12.40
2015,06,15,06,45,12.40
2015,06,15,06,46,12.30
2015,06,15,06,47,12.30
2015,06,15,06,48,12.30
2015,06,15,06,49,12.20
2015,06,15,06,50,12.20
2015,06,15,06,51,12.30
2015,06,15,06,52,12.30
2015,06,15,06,53,12.30
2015,06,15,06,54,12.20
2015,06,15,06,55,12.20
2015,06,15,06,56,12.20
2015,06,15,06,57,12.30
2015,06,15,06,58,12.30
2015,06,15,06,59,12.40
2015,06,15,07,00,12.50
2015,06,15,07,01,12.50
2015,06,15,07,02,12.60
2015,06,15,07,03,12.60
2015,06,15,07,04,12.70
2015,06,15,07,05,12.70
2015,06,15,07,06,12.80
2015,06,15,07,07,12.80
2015,06,15,07,08,12.80
2015,06,15,07,09,12.90
2015,06,15,07,10,12.90
2015,06,15,07,11,12.90
2015,06,15,07,12,12.90
2015,06,15,07,13,12.90
2015,06,15,07,14,13.00
2015,06,15,07,15,13.00
2015,06,15,07,16,13.10
2015,06,15,07,17,13.10
2015,06,15,07,18,13.20
2015,06,15,07,19,13.20
2015,06,15,07,20,13.30
2015,06,15,07,21,13.30
2015,06,15,07,22,13.30
2015,06,15,07,23,13.40
2015,06,15,07,24,13.40
2015,06,15,07,25,13.50
2015,06,15,07,26,13.50
2015,06,15,07,27,13.60
2015,06,15,07,28,13.70
2015,06,15,07,29,13.90
2015,06,15,07,30,14.00
2015,06,15,07,31,14.10
2015,06,15,07,32,14.20
2015,06,15,07,33,14.10
2015,06,15,07,34,14.10
2015,06,15,07,35,13.90
2015,06,15,07,36,13.70
2015,06,15,07,37,13.60
2015,06,15,07,38,13.50
2015,06,15,07,39,13.40
2015,06,15,07,40,13.30
2015,06,15,07,41,13.20
2015,06,15,07,42,13.00
2015,06,15,07,43,12.80
2015,06,15,07,44,12.70
2015,06,15,07,45,12.60
2015,06,15,07,46,12.50
2015,06,15,07,47,12.40
2015,06,15,07,48,12.30
2015,06,15,07,49,12.20
2015,06,15,07,50,12.10
2015,06,15,07,51,12.00
2015,06,15,07,52,12.00
2015,06,15,07,53,11.90
2015,06,15,07,54,12.00
2015,06,15,07,55,12.00
2015,06,15,07,56,12.00
2015,06,15,07,57,11.90
2015,06,15,07,58,11.80
2015,06,15,07,59,11.80
2015,06,15,08,00,11.70
2015,06,15,08,01,11.70
2015,06,15,08,02,11.70
2015,06,15,08,03,11.70
2015,06,15,08,04,11.70
2015,06,15,08,05,11.70
2015,06,15,08,06,11.70
2015,06,15,08,07,11.70
2015,06,15,08,08,11.70
2015,06,15,08,09,11.70
2015,06,15,08,10,11.70
2015,06,15,08,11,11.80
2015,06,15,08,12,11.80
2015,06,15,08,13,11.90
2015,06,15,08,14,11.90
2015,06,15,08,15,12.00
2015,06,15,08,16,12.10
2015,06,15,08,17,12.20
2015,06,15,08,18,12.30
2015,06,15,08,19,12.30
2015,06,15,08,20,12.40
2015,06,15,08,21,12.40
2015,06,15,08,22,12.50
2015,06,15,08,23,12.60
2015,06,15,08,24,12.60
2015,06,15,08,25,12.70
2015,06,15,08,26,12.70
2015,06,15,08,27,12.70
2015,06,15,08,28,12.80
2015,06,15,08,29,12.90
2015,06,15,08,30,12.90
2015,06,15,08,31,13.00
2015,06,15,08,32,13.00
2015,06,15,08,33,13.00
2015,06,15,08,34,13.00
2015,06,15,08,35,13.10
2015,06,15,08,36,13.10
2015,06,15,08,37,13.20
2015,06,15,08,38,13.40
2015,06,15,08,39,13.40
2015,06,15,08,40,13.30
2015,06,15,08,41,13.30
2015,06,15,08,42,13.20
2015,06,15,08,43,13.10
2015,06,15,08,44,13.00
2015,06,15,08,45,13.00
2015,06,15,08,46,12.90
2015,06,15,08,47,12.80
2015,06,15,08,48,12.80
2015,06,15,08,49,12.60
2015,06,15,08,50,12.30
2015,06,15,08,51,12.20
2015,06,15,08,52,12.10
2015,06,15,08,53,12.10
2015,06,15,08,54,11.90
2015,06,15,08,55,11.80
2015,06,15,08,56,11.70
2015,06,15,08,57,11.70
2015,06,15,08,58,11.70
2015,06,15,08,59,11.80
2015,06,15,09,00,11.90
2015,06,15,09,01,11.80
2015,06,15,09,02,11.80
2015,06,15,09,03,11.70
2015,06,15,09,04,11.80
2015,06,15,09,05,11.80
2015,06,15,09,06,11.90
2015,06,15,09,07,11.90
2015,06,15,09,08,11.80
2015,06,15,09,09,11.70
2015,06,15,09,10,11.60
2015,06,15,09,11,11.60
2015,06,15,09,12,11.60
2015,06,15,09,13,11.60
2015,06,15,09,14,11.50
2015,06,15,09,15,11.40
2015,06,15,09,16,11.30
2015,06,15,09,17,11.30
2015,06,15,09,18,11.20
2015,06,15,09,19,11.20
2015,06,15,09,20,11.20
2015,06,15,09,21,11.10
2015,06,15,09,22,11.10
2015,06,15,09,23,11.10
2015,06,15,09,24,11.10
2015,06,15,09,25,11.00
2015,06,15,09,26,11.00
2015,06,15,09,27,11.00
2015,06,15,09,28,11.00
2015,06,15,09,29,11.00
2015,06,15,09,30,11.00
2015,06,15,09,31,11.00
2015,06,15,09,32,11.00
2015,06,15,09,33,11.00
2015,06,15,09,34,11.00
2015,06,15,09,35,11.00
2015,06,15,09,36,11.00
2015,06,15,09,37,11.10
2015,06,15,09,38,11.10
2015,06,15,09,39,11.10
2015,06,15,09,40,11.10
2015,06,15,09,41,11.10
2015,06,15,09,42,11.10
2015,06,15,09,43,11.10
2015,06,15,09,44,11.10
2015,06,15,09,45,11.10
2015,06,15,09,46,11.10
2015,06,15,09,47,11.10
2015,06,15,09,48,11.10
2015,06,15,09,49,11.10
2015,06,15,09,50,11.10
2015,06,15,09,51,11.10
2015,06,15,09,52,11.00
2015,06,15,09,53,11.00
2015,06,15,09,54,11.00
2015,06,15,09,55,11.00
2015,06,15,09,56,11.00
2015,06,15,09,57,11.00
2015,06,15,09,58,11.00
2015,06,15,09,59,11.00
2015,06,15,10,00,11.00
2015,06,15,10,01,11.00
2015,06,15,10,02,11.00
2015,06,15,10,03,11.00
2015,06,15,10,04,10.90
2015,06,15,10,05,10.90
2015,06,15,10,06,10.90
2015,06,15,10,07,10.90
2015,06,15,10,08,10.90
2015,06,15,10,09,10.90
2015,06,15,10,10,11.00
2015,06,15,10,11,10.90
2015,06,15,10,12,11.00
2015,06,15,10,13,11.00
2015,06,15,10,14,11.00
2015,06,15,10,15,11.00
2015,06,15,10,16,11.00
2015,06,15,10,17,11.00
2015,06,15,10,18,11.00
2015,06,15,10,19,11.00
2015,06,15,10,20,11.00
2015,06,15,10,21,11.00
2015,06,15,10,22,11.00
2015,06,15,10,23,11.00
2015,06,15,10,24,11.00
2015,06,15,10,25,11.00
2015,06,15,10,26,11.00
2015,06,15,10,27,11.10
2015,06,15,10,28,11.10
2015,06,15,10,29,11.10
2015,06,15,10,30,11.10
2015,06,15,10,31,11.10
2015,06,15,10,32,11.10
2015,06,15,10,33,11.10
2015,06,15,10,34,11.10
2015,06,15,10,35,11.10
2015,06,15,10,36,11.10
2015,06,15,10,37,11.10
2015,06,15,10,38,11.10
2015,06,15,10,39,11.10
2015,06,15,10,40,11.10
2015,06,15,10,41,11.10
2015,06,15,10,42,11.10
2015,06,15,10,43,11.10
2015,06,15,10,44,11.10
2015,06,15,10,45,11.10
2015,06,15,10,46,11.10
2015,06,15,10,47,11.10
2015,06,15,10,48,11.10
2015,06,15,10,49,11.10
2015,06,15,10,50,11.10
2015,06,15,10,51,11.10
2015,06,15,10,52,11.10
2015,06,15,10,53,11.10
2015,06,15,10,54,11.10
2015,06,15,10,55,11.10
2015,06,15,10,56,11.10
2015,06,15,10,57,11.10
2015,06,15,10,58,11.10
2015,06,15,10,59,11.10
2015,06,15,11,00,11.10
2015,06,15,11,01,11.10
2015,06,15,11,02,11.10
2015,06,15,11,03,11.10
2015,06,15,11,04,11.10
2015,06,15,11,05,11.10
2015,06,15,11,06,11.10
2015,06,15,11,07,11.10
2015,06,15,11,08,11.10
2015,06,15,11,09,11.10
2015,06,15,11,10,11.10
2015,06,15,11,11,11.10
2015,06,15,11,12,11.10
2015,06,15,11,13,11.10
2015,06,15,11,14,11.10
2015,06,15,11,15,11.10
2015,06,15,11,16,11.10
2015,06,15,11,17,11.10
2015,06,15,11,18,11.10
2015,06,15,11,19,11.10
2015,06,15,11,20,11.10
2015,06,15,11,21,11.10
2015,06,15,11,22,11.10
2015,06,15,11,23,11.10
2015,06,15,11,24,11.10
2015,06,15,11,25,11.10
2015,06,15,11,26,11.10
2015,06,15,11,27,11.10
2015,06,15,11,28,11.20
2015,06,15,11,29,11.20
2015,06,15,11,30,11.20
2015,06,15,11,31,11.20
2015,06,15,11,32,11.20
2015,06,15,11,33,11.20
2015,06,15,11,34,11.20
2015,06,15,11,35,11.20
2015,06,15,11,36,11.20
2015,06,15,11,37,11.20
2015,06,15,11,38,11.20
2015,06,15,11,39,11.20
2015,06,15,11,40,11.20
2015,06,15,11,41,11.20
2015,06,15,11,42,11.20
2015,06,15,11,43,11.20
2015,06,15,11,44,11.20
2015,06,15,11,45,11.20
2015,06,15,11,46,11.20
2015,06,15,11,47,11.20
2015,06,15,11,48,11.20
2015,06,15,11,49,11.20
2015,06,15,11,50,11.20
2015,06,15,11,51,11.20
2015,06,15,11,52,11.20
2015,06,15,11,53,11.20
2015,06,15,11,54,11.20
2015,06,15,11,55,11.20
2015,06,15,11,56,11.20
2015,06,15,11,57,11.20
2015,06,15,11,58,11.20
2015,06,15,11,59,11.20
2015,06,15,12,00,11.20
2015,06,15,12,01,11.20
2015,06,15,12,02,11.20
2015,06,15,12,03,11.20
2015,06,15,12,04,11.20
2015,06,15,12,05,11.20
2015,06,15,12,06,11.20
2015,06,15,12,07,11.30
2015,06,15,12,08,11.30
2015,06,15,12,09,11.30
2015,06,15,12,10,11.30
2015,06,15,12,11,11.30
2015,06,15,12,12,11.30
2015,06,15,12,13,11.30
2015,06,15,12,14,11.30
2015,06,15,12,15,11.30
2015,06,15,12,16,11.30
2015,06,15,12,17,11.30
2015,06,15,12,18,11.30
2015,06,15,12,19,11.30
2015,06,15,12,20,11.40
2015,06,15,12,21,11.40
2015,06,15,12,22,11.40
2015,06,15,12,23,11.40
2015,06,15,12,24,11.50
2015,06,15,12,25,11.50
2015,06,15,12,26,11.50
2015,06,15,12,27,11.60
2015,06,15,12,28,11.60
2015,06,15,12,29,11.60
2015,06,15,12,30,11.60
2015,06,15,12,31,11.70
2015,06,15,12,32,11.70
2015,06,15,12,33,11.70
2015,06,15,12,34,11.70
2015,06,15,12,35,11.70
2015,06,15,12,36,11.70
2015,06,15,12,37,11.70
2015,06,15,12,38,11.70
2015,06,15,12,39,11.70
2015,06,15,12,40,11.70
2015,06,15,12,41,11.70
2015,06,15,12,42,11.80
2015,06,15,12,43,11.80
2015,06,15,12,44,11.80
2015,06,15,12,45,11.80
2015,06,15,12,46,11.70
2015,06,15,12,47,11.70
2015,06,15,12,48,11.70
2015,06,15,12,49,11.70
2015,06,15,12,50,11.70
2015,06,15,12,51,11.70
2015,06,15,12,52,11.70
2015,06,15,12,53,11.70
2015,06,15,12,54,11.70
2015,06,15,12,55,11.70
2015,06,15,12,56,11.70
2015,06,15,12,57,11.70
2015,06,15,12,58,11.80
2015,06,15,12,59,11.80
2015,06,15,13,00,11.80
2015,06,15,13,01,11.80
2015,06,15,13,02,11.80
2015,06,15,13,03,11.80
2015,06,15,13,04,11.80
2015,06,15,13,05,11.90
2015,06,15,13,06,11.90
2015,06,15,13,07,11.90
2015,06,15,13,08,12.00
2015,06,15,13,09,12.00
2015,06,15,13,10,12.00
2015,06,15,13,11,12.00
2015,06,15,13,12,12.00
2015,06,15,13,13,12.00
2015,06,15,13,14,12.00
2015,06,15,13,15,12.00
2015,06,15,13,16,12.00
2015,06,15,13,17,12.10
2015,06,15,13,18,12.10
2015,06,15,13,19,12.10
2015,06,15,13,20,12.20
2015,06,15,13,21,12.20
2015,06,15,13,22,12.30
2015,06,15,13,23,12.20
2015,06,15,13,24,12.10
2015,06,15,13,25,12.10
2015,06,15,13,26,12.10
2015,06,15,13,27,12.00
2015,06,15,13,28,11.90
2015,06,15,13,29,11.90
2015,06,15,13,30,11.90
2015,06,15,13,31,11.90
2015,06,15,13,32,11.80
2015,06,15,13,33,11.80
2015,06,15,13,34,11.80
2015,06,15,13,35,11.80
2015,06,15,13,36,11.80
2015,06,15,13,37,11.80
2015,06,15,13,38,11.80
2015,06,15,13,39,11.80
2015,06,15,13,40,11.80
2015,06,15,13,41,11.80
2015,06,15,13,42,11.90
2015,06,15,13,43,11.90
2015,06,15,13,44,12.00
2015,06,15,13,45,12.10
2015,06,15,13,46,12.20
2015,06,15,13,47,12.40
2015,06,15,13,48,12.60
2015,06,15,13,49,12.50
2015,06,15,13,50,12.40
2015,06,15,13,51,12.20
2015,06,15,13,52,12.10
2015,06,15,13,53,12.00
2015,06,15,13,54,12.00
2015,06,15,13,55,12.00
2015,06,15,13,56,12.00
2015,06,15,13,57,12.00
2015,06,15,13,58,11.90
2015,06,15,13,59,11.90
2015,06,15,14,00,11.90
2015,06,15,14,01,11.90
2015,06,15,14,02,11.80
2015,06,15,14,03,11.80
2015,06,15,14,04,11.70
2015,06,15,14,05,11.70
2015,06,15,14,06,11.60
2015,06,15,14,07,11.60
2015,06,15,14,08,11.50
2015,06,15,14,09,11.50
2015,06,15,14,10,11.50
2015,06,15,14,11,11.60
2015,06,15,14,12,11.60
2015,06,15,14,13,11.60
2015,06,15,14,14,11.60
2015,06,15,14,15,11.60
2015,06,15,14,16,11.70
2015,06,15,14,17,11.70
2015,06,15,14,18,11.70
2015,06,15,14,19,11.70
2015,06,15,14,20,11.70
2015,06,15,14,21,11.70
2015,06,15,14,22,11.80
2015,06,15,14,23,11.70
2015,06,15,14,24,11.70
2015,06,15,14,25,11.70
2015,06,15,14,26,11.70
2015,06,15,14,27,11.80
2015,06,15,14,28,11.90
2015,06,15,14,29,12.00
2015,06,15,14,30,12.10
2015,06,15,14,31,12.20
2015,06,15,14,32,12.30
2015,06,15,14,33,12.30
2015,06,15,14,34,12.30
2015,06,15,14,35,12.20
2015,06,15,14,36,12.20
2015,06,15,14,37,12.20
2015,06,15,14,38,12.20
2015,06,15,14,39,12.20
2015,06,15,14,40,12.20
2015,06,15,14,41,12.10
2015,06,15,14,42,12.10
2015,06,15,14,43,12.10
2015,06,15,14,44,12.10
2015,06,15,14,45,12.10
2015,06,15,14,46,12.10
2015,06,15,14,47,12.10
2015,06,15,14,48,12.10
2015,06,15,14,49,12.10
2015,06,15,14,50,12.10
2015,06,15,14,51,12.10
2015,06,15,14,52,12.10
2015,06,15,14,53,12.10
2015,06,15,14,54,12.10
2015,06,15,14,55,12.10
2015,06,15,14,56,11.90
2015,06,15,14,57,11.90
2015,06,15,14,58,11.90
2015,06,15,14,59,11.90
2015,06,15,15,00,11.90
2015,06,15,15,01,11.90
2015,06,15,15,02,11.90
2015,06,15,15,03,11.90
2015,06,15,15,04,12.00
2015,06,15,15,05,12.00
2015,06,15,15,06,12.10
2015,06,15,15,07,12.20
2015,06,15,15,08,12.20
2015,06,15,15,09,12.30
2015,06,15,15,10,12.30
2015,06,15,15,11,12.30
2015,06,15,15,12,12.30
2015,06,15,15,13,12.30
2015,06,15,15,14,12.30
2015,06,15,15,15,12.30
2015,06,15,15,16,12.20
2015,06,15,15,17,12.10
2015,06,15,15,18,12.10
2015,06,15,15,19,12.00
2015,06,15,15,20,12.00
2015,06,15,15,21,12.00
2015,06,15,15,22,12.00
2015,06,15,15,23,12.00
2015,06,15,15,24,12.10
2015,06,15,15,25,12.10
2015,06,15,15,26,12.10
2015,06,15,15,27,12.00
2015,06,15,15,28,12.00
2015,06,15,15,29,12.10
2015,06,15,15,30,12.10
2015,06,15,15,31,12.20
2015,06,15,15,32,12.20
2015,06,15,15,33,12.20
2015,06,15,15,34,12.20
2015,06,15,15,35,12.10
2015,06,15,15,36,12.10
2015,06,15,15,37,12.10
2015,06,15,15,38,12.00
2015,06,15,15,39,12.00
2015,06,15,15,40,12.00
2015,06,15,15,41,12.00
2015,06,15,15,42,12.00
2015,06,15,15,43,12.10
2015,06,15,15,44,12.00
2015,06,15,15,45,12.00
2015,06,15,15,46,12.00
2015,06,15,15,47,11.90
2015,06,15,15,48,11.90
2015,06,15,15,49,11.80
2015,06,15,15,50,11.80
2015,06,15,15,51,11.80
2015,06,15,15,52,11.80
2015,06,15,15,53,11.80
2015,06,15,15,54,11.70
2015,06,15,15,55,11.70
2015,06,15,15,56,11.70
2015,06,15,15,57,11.70
2015,06,15,15,58,11.70
2015,06,15,15,59,11.80
2015,06,15,16,00,11.80
2015,06,15,16,01,11.80
2015,06,15,16,02,11.80
2015,06,15,16,03,11.80
2015,06,15,16,04,11.80
2015,06,15,16,05,11.90
2015,06,15,16,06,11.90
2015,06,15,16,07,11.90
2015,06,15,16,08,11.80
2015,06,15,16,09,11.80
2015,06,15,16,10,11.80
2015,06,15,16,11,11.80
2015,06,15,16,12,11.80
2015,06,15,16,13,11.80
2015,06,15,16,14,11.80
2015,06,15,16,15,11.90
2015,06,15,16,16,11.90
2015,06,15,16,17,11.90
2015,06,15,16,18,11.90
2015,06,15,16,19,11.90
2015,06,15,16,20,11.90
2015,06,15,16,21,11.90
2015,06,15,16,22,12.00
2015,06,15,16,23,12.00
2015,06,15,16,24,12.00
2015,06,15,16,25,12.00
2015,06,15,16,26,12.00
2015,06,15,16,27,12.00
2015,06,15,16,28,12.00
2015,06,15,16,29,12.00
2015,06,15,16,30,12.00
2015,06,15,16,31,12.00
2015,06,15,16,32,12.00
2015,06,15,16,33,12.00
2015,06,15,16,34,12.00
2015,06,15,16,35,12.00
2015,06,15,16,36,12.00
2015,06,15,16,37,12.10
2015,06,15,16,38,12.10
2015,06,15,16,39,12.10
2015,06,15,16,40,12.10
2015,06,15,16,41,12.10
2015,06,15,16,42,12.10
2015,06,15,16,43,12.10
2015,06,15,16,44,12.10
2015,06,15,16,45,12.10
2015,06,15,16,46,12.10
2015,06,15,16,47,12.10
2015,06,15,16,48,12.20
2015,06,15,16,49,12.20
2015,06,15,16,50,12.20
2015,06,15,16,51,12.20
2015,06,15,16,52,12.20
2015,06,15,16,53,12.20
2015,06,15,16,54,12.20
2015,06,15,16,55,12.30
2015,06,15,16,56,12.30
2015,06,15,16,57,12.30
2015,06,15,16,58,12.30
2015,06,15,16,59,12.30
2015,06,15,17,00,12.30
2015,06,15,17,01,12.30
2015,06,15,17,02,12.30
2015,06,15,17,03,12.30
2015,06,15,17,04,12.30
2015,06,15,17,05,12.40
2015,06,15,17,06,12.40
2015,06,15,17,07,12.40
2015,06,15,17,08,12.40
2015,06,15,17,09,12.40
2015,06,15,17,10,12.50
2015,06,15,17,11,12.50
2015,06,15,17,12,12.60
2015,06,15,17,13,12.50
2015,06,15,17,14,12.50
2015,06,15,17,15,12.50
2015,06,15,17,16,12.40
2015,06,15,17,17,12.40
2015,06,15,17,18,12.40
2015,06,15,17,19,12.40